Time,TemperatureF,DewpointF,PressureIn,WindDirection,WindDirectionDegrees,WindSpeedMPH,WindSpeedGustMPH,Humidity,HourlyPrecipIn,Conditions,Clouds,dailyrainin,SolarRadiationWatts/m^2,SoftwareType,DateUTC
2013-05-18 00:02:00,63.0,61.0,-100.00,SE,131,3.0,3.0,93,0.00,,,0.03,0.000000,,2013-05-18 05:02:00,
2013-05-18 00:32:00,63.0,62.0,-100.00,ESE,111,2.0,3.0,97,0.00,,,0.03,0.000000,,2013-05-18 05:32:00,
2013-05-18 00:42:00,63.0,62.0,-100.00,ESE,111,2.0,3.0,97,0.00,,,0.03,0.000000,,2013-05-18 05:42:00,
2013-05-18 00:52:00,63.0,62.0,-100.00,ESE,111,2.0,3.0,97,0.00,,,0.03,0.000000,,2013-05-18 05:52:00,
2013-05-18 01:02:00,63.0,62.0,-100.00,ESE,111,2.0,3.0,97,0.00,,,0.03,0.000000,,2013-05-18 06:02:00,
2013-05-18 01:32:00,62.0,61.0,-100.00,SE,126,3.0,6.0,97,0.00,,,0.03,0.000000,,2013-05-18 06:32:00,
2013-05-18 01:42:00,62.0,61.0,-100.00,SE,126,3.0,6.0,97,0.00,,,0.03,0.000000,,2013-05-18 06:42:00,
2013-05-18 01:52:00,62.0,61.0,-100.00,SE,126,3.0,6.0,97,0.00,,,0.03,0.000000,,2013-05-18 06:52:00,
2013-05-18 02:01:00,62.0,61.0,-100.00,SE,126,3.0,6.0,97,0.00,,,0.03,0.000000,,2013-05-18 07:01:00,
2013-05-18 02:32:00,61.0,60.0,-100.00,SE,145,4.0,5.0,98,0.00,,,0.03,0.000000,,2013-05-18 07:32:00,
2013-05-18 02:43:00,61.0,60.0,-100.00,SE,145,4.0,5.0,98,0.00,,,0.03,0.000000,,2013-05-18 07:43:00,
2013-05-18 02:52:00,61.0,60.0,-100.00,SE,145,4.0,5.0,98,0.00,,,0.03,0.000000,,2013-05-18 07:52:00,
2013-05-18 03:01:00,61.0,60.0,-100.00,SE,145,4.0,5.0,98,0.00,,,0.03,0.000000,,2013-05-18 08:01:00,
2013-05-18 03:33:00,60.0,60.0,-100.00,ESE,118,2.0,3.0,99,0.00,,,0.03,0.000000,,2013-05-18 08:33:00,
2013-05-18 03:42:00,60.0,60.0,-100.00,ESE,118,2.0,3.0,99,0.00,,,0.03,0.000000,,2013-05-18 08:42:00,
2013-05-18 03:52:00,60.0,60.0,-100.00,ESE,118,2.0,3.0,99,0.00,,,0.03,0.000000,,2013-05-18 08:52:00,
2013-05-18 04:02:00,60.0,60.0,-100.00,ESE,118,2.0,3.0,99,0.00,,,0.03,0.000000,,2013-05-18 09:02:00,
2013-05-18 04:33:00,59.0,59.0,-100.00,SE,137,2.0,2.0,100,0.00,,,0.03,0.000000,,2013-05-18 09:33:00,
2013-05-18 04:43:00,59.0,59.0,-100.00,SE,137,2.0,2.0,100,0.00,,,0.03,0.000000,,2013-05-18 09:43:00,
2013-05-18 04:53:00,59.0,59.0,-100.00,SE,137,2.0,2.0,100,0.00,,,0.03,0.000000,,2013-05-18 09:53:00,
2013-05-18 05:03:00,59.0,59.0,-100.00,SE,137,2.0,2.0,100,0.00,,,0.03,0.000000,,2013-05-18 10:03:00,
2013-05-18 05:33:00,60.0,60.0,-100.00,ESE,114,3.0,5.0,100,0.00,,,0.03,0.000000,,2013-05-18 10:33:00,
2013-05-18 05:42:00,60.0,60.0,-100.00,ESE,114,3.0,5.0,100,0.00,,,0.03,0.000000,,2013-05-18 10:42:00,
2013-05-18 05:53:00,60.0,60.0,-100.00,ESE,114,3.0,5.0,100,0.00,,,0.03,0.000000,,2013-05-18 10:53:00,
2013-05-18 06:03:00,60.0,60.0,-100.00,ESE,114,3.0,5.0,100,0.00,,,0.03,0.000000,,2013-05-18 11:03:00,
2013-05-18 06:33:00,62.0,62.0,-100.00,ESE,115,5.0,8.0,100,0.00,,,0.03,4.000000,,2013-05-18 11:33:00,
2013-05-18 06:42:00,62.0,62.0,-100.00,ESE,115,5.0,8.0,100,0.00,,,0.03,4.000000,,2013-05-18 11:42:00,
2013-05-18 06:52:00,62.0,62.0,-100.00,ESE,115,5.0,8.0,100,0.00,,,0.03,4.000000,,2013-05-18 11:52:00,
2013-05-18 07:01:00,62.0,62.0,-100.00,ESE,115,5.0,8.0,100,0.00,,,0.03,4.000000,,2013-05-18 12:01:00,
2013-05-18 07:33:00,64.0,64.0,-100.00,SE,128,6.0,9.0,99,0.00,,,-99.99,78.000000,,2013-05-18 12:33:00,
2013-05-18 07:42:00,64.0,64.0,-100.00,SE,128,6.0,9.0,99,0.00,,,-99.99,78.000000,,2013-05-18 12:42:00,
2013-05-18 07:52:00,64.0,64.0,-100.00,SE,128,6.0,9.0,99,0.00,,,-99.99,78.000000,,2013-05-18 12:52:00,
2013-05-18 08:01:00,64.0,64.0,-100.00,SE,128,6.0,9.0,99,0.00,,,-99.99,78.000000,,2013-05-18 13:01:00,
2013-05-18 08:33:00,68.0,65.0,-100.00,SE,134,8.0,11.0,89,0.00,,,0.03,251.000000,,2013-05-18 13:33:00,
2013-05-18 08:43:00,68.0,65.0,-100.00,SE,134,8.0,11.0,89,0.00,,,0.03,251.000000,,2013-05-18 13:43:00,
2013-05-18 08:53:00,68.0,65.0,-100.00,SE,134,8.0,11.0,89,0.00,,,0.03,251.000000,,2013-05-18 13:53:00,
2013-05-18 09:03:00,68.0,65.0,-100.00,SE,134,8.0,11.0,89,0.00,,,0.03,251.000000,,2013-05-18 14:03:00,
2013-05-18 09:33:00,70.0,64.0,-100.00,ESE,121,7.0,10.0,82,0.00,,,0.03,436.000000,,2013-05-18 14:33:00,
2013-05-18 09:42:00,70.0,64.0,-100.00,ESE,121,7.0,10.0,82,0.00,,,0.03,436.000000,,2013-05-18 14:42:00,
2013-05-18 09:54:00,70.0,64.0,-100.00,ESE,121,7.0,10.0,82,0.00,,,0.03,436.000000,,2013-05-18 14:54:00,
2013-05-18 10:03:00,70.0,64.0,-100.00,ESE,121,7.0,10.0,82,0.00,,,0.03,436.000000,,2013-05-18 15:03:00,
2013-05-18 10:33:00,74.0,66.0,-100.00,SE,127,6.0,11.0,77,0.00,,,0.03,615.000000,,2013-05-18 15:33:00,
2013-05-18 10:43:00,74.0,66.0,-100.00,SE,127,6.0,11.0,77,0.00,,,0.03,615.000000,,2013-05-18 15:43:00,
2013-05-18 10:53:00,74.0,66.0,-100.00,SE,127,6.0,11.0,77,0.00,,,0.03,615.000000,,2013-05-18 15:53:00,
2013-05-18 11:02:00,74.0,66.0,-100.00,SE,127,6.0,11.0,77,0.00,,,0.03,615.000000,,2013-05-18 16:02:00,
2013-05-18 11:33:00,75.0,64.0,-100.00,SE,140,9.0,13.0,68,0.00,,,0.03,685.000000,,2013-05-18 16:33:00,
2013-05-18 11:42:00,75.0,64.0,-100.00,SE,140,9.0,13.0,68,0.00,,,0.03,685.000000,,2013-05-18 16:42:00,
2013-05-18 11:52:00,75.0,64.0,-100.00,SE,140,9.0,13.0,68,0.00,,,0.03,685.000000,,2013-05-18 16:52:00,
2013-05-18 12:02:00,75.0,64.0,-100.00,SE,140,9.0,13.0,68,0.00,,,0.03,685.000000,,2013-05-18 17:02:00,
2013-05-18 12:33:00,78.0,64.0,-100.00,SSE,164,7.0,14.0,62,0.00,,,0.03,707.000000,,2013-05-18 17:33:00,
2013-05-18 12:42:00,78.0,64.0,-100.00,SSE,164,7.0,14.0,62,0.00,,,0.03,707.000000,,2013-05-18 17:42:00,
2013-05-18 12:52:00,78.0,64.0,-100.00,SSE,164,7.0,14.0,62,0.00,,,0.03,707.000000,,2013-05-18 17:52:00,
2013-05-18 13:01:00,78.0,64.0,-100.00,SSE,164,7.0,14.0,62,0.00,,,0.03,707.000000,,2013-05-18 18:01:00,
2013-05-18 13:32:00,75.0,63.0,-100.00,SSE,151,8.0,8.0,66,0.00,,,0.03,471.000000,,2013-05-18 18:32:00,
2013-05-18 13:42:00,75.0,63.0,-100.00,SSE,151,8.0,8.0,66,0.00,,,0.03,471.000000,,2013-05-18 18:42:00,
2013-05-18 13:52:00,75.0,63.0,-100.00,SSE,151,8.0,8.0,66,0.00,,,0.03,471.000000,,2013-05-18 18:52:00,
2013-05-18 14:02:00,75.0,63.0,-100.00,SSE,151,8.0,8.0,66,0.00,,,0.03,471.000000,,2013-05-18 19:02:00,
2013-05-18 14:32:00,76.0,62.0,-100.00,SSE,161,8.0,10.0,62,0.00,,,0.03,369.000000,,2013-05-18 19:32:00,
2013-05-18 14:42:00,76.0,62.0,-100.00,SSE,161,8.0,10.0,62,0.00,,,0.03,369.000000,,2013-05-18 19:42:00,
2013-05-18 14:52:00,76.0,62.0,-100.00,SSE,161,8.0,10.0,62,0.00,,,0.03,369.000000,,2013-05-18 19:52:00,
2013-05-18 15:02:00,76.0,62.0,-100.00,SSE,161,8.0,10.0,62,0.00,,,0.03,369.000000,,2013-05-18 20:02:00,
2013-05-18 15:32:00,77.0,62.0,-100.00,SSW,198,3.0,7.0,60,0.00,,,0.03,400.000000,,2013-05-18 20:32:00,
2013-05-18 15:42:00,77.0,62.0,-100.00,SSW,198,3.0,7.0,60,0.00,,,0.03,400.000000,,2013-05-18 20:42:00,
2013-05-18 15:52:00,77.0,62.0,-100.00,SSW,198,3.0,7.0,60,0.00,,,0.03,400.000000,,2013-05-18 20:52:00,
2013-05-18 16:01:00,77.0,62.0,-100.00,SSW,198,3.0,7.0,60,0.00,,,0.03,400.000000,,2013-05-18 21:01:00,
2013-05-18 16:33:00,79.0,62.0,-100.00,South,182,5.0,10.0,56,0.00,,,0.02,519.000000,,2013-05-18 21:33:00,
2013-05-18 16:44:00,79.0,62.0,-100.00,South,182,5.0,10.0,56,0.00,,,0.02,519.000000,,2013-05-18 21:44:00,
2013-05-18 16:53:00,79.0,62.0,-100.00,South,182,5.0,10.0,56,0.00,,,0.02,519.000000,,2013-05-18 21:53:00,
2013-05-18 17:03:00,79.0,62.0,-100.00,South,182,5.0,10.0,56,0.00,,,0.02,519.000000,,2013-05-18 22:03:00,
2013-05-18 17:33:00,79.0,61.0,-100.00,SSE,161,8.0,15.0,55,0.00,,,0.00,563.000000,,2013-05-18 22:33:00,
2013-05-18 17:42:00,79.0,61.0,-100.00,SSE,161,8.0,15.0,55,0.00,,,0.00,563.000000,,2013-05-18 22:42:00,
2013-05-18 17:53:00,79.0,61.0,-100.00,SSE,161,8.0,15.0,55,0.00,,,0.00,563.000000,,2013-05-18 22:53:00,
2013-05-18 18:01:00,79.0,61.0,-100.00,SSE,161,8.0,15.0,55,0.00,,,0.00,563.000000,,2013-05-18 23:01:00,
2013-05-18 18:32:00,78.0,62.0,-100.00,South,175,8.0,9.0,57,0.00,,,0.00,210.000000,,2013-05-18 23:32:00,
2013-05-18 18:42:00,78.0,62.0,-100.00,South,175,8.0,9.0,57,0.00,,,0.00,210.000000,,2013-05-18 23:42:00,
2013-05-18 18:53:00,78.0,62.0,-100.00,South,175,8.0,9.0,57,0.00,,,0.00,210.000000,,2013-05-18 23:53:00,
2013-05-18 19:01:00,78.0,62.0,-100.00,South,175,8.0,9.0,57,0.00,,,0.00,210.000000,,2013-05-19 00:01:00,
2013-05-18 20:32:00,72.0,60.0,-100.00,SE,136,5.0,6.0,67,-99.99,,,0.00,37.000000,,2013-05-19 01:32:00,
2013-05-18 20:42:00,72.0,60.0,-100.00,SE,136,5.0,6.0,67,-99.99,,,0.00,37.000000,,2013-05-19 01:42:00,
2013-05-18 20:52:00,72.0,60.0,-100.00,SE,136,5.0,6.0,67,-99.99,,,0.00,37.000000,,2013-05-19 01:52:00,
2013-05-18 21:01:00,72.0,60.0,-100.00,SE,136,5.0,6.0,67,-99.99,,,0.00,37.000000,,2013-05-19 02:01:00,
2013-05-18 21:32:00,69.0,60.0,-100.00,SE,135,4.0,6.0,74,0.00,,,0.00,1.000000,,2013-05-19 02:32:00,
2013-05-18 21:42:00,69.0,60.0,-100.00,SE,135,4.0,6.0,74,0.00,,,0.00,1.000000,,2013-05-19 02:42:00,
2013-05-18 21:52:00,69.0,60.0,-100.00,SE,135,4.0,6.0,74,0.00,,,0.00,1.000000,,2013-05-19 02:52:00,
2013-05-18 22:01:00,69.0,60.0,-100.00,SE,135,4.0,6.0,74,0.00,,,0.00,1.000000,,2013-05-19 03:01:00,
2013-05-18 22:33:00,67.0,60.0,-100.00,SE,130,5.0,5.0,78,0.00,,,0.00,0.000000,,2013-05-19 03:33:00,
2013-05-18 22:43:00,67.0,60.0,-100.00,SE,130,5.0,5.0,78,0.00,,,0.00,0.000000,,2013-05-19 03:43:00,
2013-05-18 22:53:00,67.0,60.0,-100.00,SE,130,5.0,5.0,78,0.00,,,0.00,0.000000,,2013-05-19 03:53:00,
2013-05-18 23:02:00,67.0,60.0,-100.00,SE,130,5.0,5.0,78,0.00,,,0.00,0.000000,,2013-05-19 04:02:00,
2013-05-18 23:33:00,66.0,61.0,-100.00,SE,125,4.0,7.0,83,0.00,,,0.00,0.000000,,2013-05-19 04:33:00,
2013-05-18 23:42:00,66.0,61.0,-100.00,SE,125,4.0,7.0,83,0.00,,,0.00,0.000000,,2013-05-19 04:42:00,
2013-05-18 23:53:00,66.0,61.0,-100.00,SE,125,4.0,7.0,83,0.00,,,0.00,0.000000,,2013-05-19 04:53:00,